国际通讯卫星 901星 (INTELSAT 901 (IS-901))

导读

INTELSAT 901(IS-901)由国际通信卫星组织(ITSO)于2001年6月9日发射,搭载阿里安4号火箭进入太空,主要为北美、南美、非洲和欧洲地区提供广播通信与宽带服务,设计服役期至少13年。 原推进剂耗尽后,2020年MEV-1任务扩展飞行器与其对接,成功延长卫星服役寿命五年,2025年完成任务后分离,卫星最终退役进入地球同步轨道墓地轨道,此次任务成为商业在轨卫星延寿的标志性实践。

基本信息
目录编号:
26824
目录名称:
INTELSAT 901
国际标识:
2001-024A
轨道中心:
EARTH
卫星名称:
国际通讯卫星 901星
卫星全名:
国际通讯卫星 901星 (INTELSAT 901 (IS-901))
卫星状态:
在轨 (已飞行9179 天)
发射日期:
2001-06-09 UTC
国别 :
(ITSO)
星等 :
--
轨道信息
数据来源 国际轨道数据 AOE轨道数据
星历时间 2026-07-27T13:48:13+0800
16小时前
查看轨道信息
2026-07-26T06:00:00+0800
2天前
查看轨道信息
半长轴 42576.178km 42576.149km
偏心率 0.0005885 0.0005868
轨道倾角 1.360° 1.357°
近地点辐角 9.525° 8.648°
升交点赤经 84.116° 84.183°
平近点角 268.963° 158.328°
近地点 36172.984km 36173.028km
远地点 36223.098km 36222.996km
周期 1457.168分钟 1457.167分钟
每日圈数 0.988218 0.988219
详细信息
卫星平台:
SSL 1300HL
平衡模式:
三轴稳定
覆盖范围:
全球
运营商:
国际卫星通信公司
运营商所在国:
美国
制造商(研发单位):
劳拉空间系统公司
制造商所在国:
美国
使用方式:
暂无
卫星简介
从1965年4月至1984年3月,国际通信卫星组织发射了5代、6种不同性能的卫星共计35颗,除6颗卫星因运载火箭和远地点发动机故障而发射失败外,其余29颗卫星均被送到了预定的静止轨道位置。1984年8月前后,国际通信卫星组织利用部署在大西洋、太平洋、印度洋上空的15颗国际通信卫星,为遍布世界各地170多个国家或地区提供电话、电传、电报、电视和数据传输等电信业务;该卫星仍在工作。
2D轨道图
3D轨道图
轨道高度分析图
轨道倾角分析图
轨道综合分析图
查看轨道综合分析图